Showing default

FOX-1, 40967

Orbit data source: Space-Track

FOX-1, 40967 is a payload satellite owned by AMSAT-NA (US) in LEO that was launched on Thu, 08 Oct 2015 UTC via an ATLAS V 401 launch vehicle from the Air Force Western Test Range (AFWTR). Payloads include a variety of satellites, spacecraft, and rockets equipped with specific instruments for various scientific and technological missions. These include communications satellites like Starlink; space stations such as the ISS; scientific satellites like the Hubble; Earth observation satellites from companies like Planet Labs, Umbra, and HawkEye 360; GPS; miniature CubeSats for education and research; and military/defense satellites.

Loading next visibility...
FOX-1 details
Identifier
40967, 2015-058D
Orbit
LEO
Last TLE update9 hours ago
Origin
Flag of USAMSAT-NA (US)
ManufacturerAMSAT-NA
MissionOperational Amateur Technology
Bus & MotorCUBESAT 1U, Unknown motor
Mass1 kg wet, 1 kg dry
Launch date (UTC)
2015-10-08 (9 years ago)
Launch vehicle
ATLAS V 401
Launch site
Air Force Western Test Range (AFWTR)
Object type
Payload
Rocket body
Debris
Shape & HBRBox, 0.1 m
Radar Cross Section0.015 m², Medium (>0.1 m² and < 1m²)

Expand to show TLE details & history

TLE from 9 hours ago
0 FOX-1
1 40967U 15058D   25045.22289289  .00005835  00000-0  50812-3 0  9993
2 40967  64.7783 351.0073 0177220 231.4376 127.0743 14.86502748 40910
Epoch: 2025-02-14T05:20Z
Definitive object data (Epoch: 2025-02-14T05:20:57.945Z)
Latitude-0.00004°
Longitude126.2781°
Altitude686.906 km
Speed7.473 km/s
True Right ascension23h 24m 01s
True Declination0° 00' 00"
Sunlit
Object was in daylight at TLE epoch
Visualization TLE readout
Latitude-38.70916°
Longitude-32.84068°
Altitude499.922 km
Speed7.68 km/s
Apparent Right ascension09h 13m 03s
Apparent Declination-56° 42' 17"
Sunlit
Object is in full shadow
Visualization observer readout
Local Sidereal Time17:04:55
Azimuth225.534° WSW
Elevation-47.205°
Doppler factor1
Orbital elements
Apogee altitude731.24 km
Perigee altitude483.644 km
Semi-major axis6,985.579 km
Eccentricity0.017722
Inclination64.7783°
RAAN351.0073°
Arg. of periapsis231.4376°
True anomaly128.673°
Mean anomaly127.0743°
Eccentric anomaly127.8758°
Mean motion3.7174 °/min
BSTAR0.00050812
Orbital period96.84 mins
Loading maneuver chart data...
Loading historical data...
Loading historical data...
Loading historical data...
Loading historical data...
Loading historical data...
Loading historical data...
Loading historical data...

FOX-1 Visibility forecast

Observer location: undefined°, undefined

Span
Click to sort rows by Start time (UTC) header in descending order
Start Az.
Max El. time (UTC)
Max El. Az.
Max El.
End time (UTC)
End Az.
9 mins2025-02-14 21:36:57.483Z191.473° SSW2025-02-14 21:41:57.483Z98.589° ESE38.018°2025-02-14 21:45:57.483Z42.88° NE
6 mins2025-02-14 23:18:57.483Z274.058° WNW2025-02-14 23:21:57.483Z321.478° NNW22.011°2025-02-14 23:24:57.483Z2.483° NNE
6 mins2025-02-15 06:06:57.483Z353.831° N2025-02-15 06:09:57.483Z51.153° ENE28.833°2025-02-15 06:12:57.483Z108.014° ESE
5 mins2025-02-15 07:46:57.483Z293.01° NW2025-02-15 07:48:57.483Z259.416° W23.178°2025-02-15 07:51:57.483Z202.021° SSW
|